Tracking 25949 objects as of 9-Aug-2022
HD Live streaming from Space Station
objects crossing your sky now

STARLINK-4021

Track STARLINK-4021 now!
10-day predictions
STARLINK-4021 is classified as:


NORAD ID: 53149
Int'l Code: 2022-083T
Perigee: 355.4 km
Apogee: 358.4 km
Inclination: 53.2 °
Period: 91.5 minutes
Semi major axis: 6727 km
RCS: Unknown
Launch date: July 17, 2022
Source: United States (US)
Launch site: AIR FORCE EASTERN TEST RANGE (AFETR)
aabbcc
Your satellite tracking list
Your tracking list is empty




NASA's NSSDC Master Catalog

Two Line Element Set (TLE):
1 53149U 22083T   22221.16667824 -.00025139  00000-0 -17517-3 0  9992
2 53149  53.2176 295.0912 0002207  19.0296 222.0737 15.73204769  4207
Source of the keplerian elements: AFSPC